Location: Bambrugge
(50.9212°N, 3.9299°E)
Time: 16:29:48
(UTC+00:00)

Helios 1A Rocket - Pass Details

Date: 13 August 2024
Orbit: 512 x 533 km, 98.3° (Epoch: 06 September)

Event Time Altitude Azimuth Distance (km) Brightness Sun altitude
Exits shadow 00:17:18 23° 89° (E) 1,185 4.5 -24.2°
Maximum altitude 00:18:19 26° 64° (ENE) 1,098 4.6 -24.2°
Drops below altitude 10° 00:21:36 10° 7° (N) 1,820 6.6 -24.1°
Sets 00:23:58 0° 355° (N) 2,715 7.6 -24.1°
